ハリントン-エーベル彗星

52P/Harrington-Abell (1999)

English version
Home page
Total 6,336 html files since Dec. 4, 1995
Updated on June 12, 1999

---------------------------------------------------------------------

・ プロフィール

・ 写真集

・ 軌道要素

   The following improved orbital elements by Kenji Muraoka, 
  are from 318 observations 1975 to 1999, including 9 Planets, 
  Moon and 5 minor planets perturbations and non-gravitational 
  effect of style II.  The mean residual is +/- 0.71 arc seconds.

      Epoch  =  1999 Jan  = 2451200.5
          T  =  1999 Jan. 27.87697       +/- 0.00058 (m.e.) TT
       Peri. =  138.90063                +/- 0.00025
       Node  =  337.28741                +/- 0.00008   (2000.0)
       Incl. =   10.21847                +/- 0.00001
          q  =    1.7559831              +/- 0.0000015 AU
          e  =    0.5429107              +/- 0.0000004
          a  =    3.8416632              +/- 0.0000013 AU
          n  =    0.13089563             +/- 0.00000006
          P  =    7.530                  +/- 0.0000037  years
         A1  =   +0.320                  +/- 0.021
         A2  =   +0.00563                +/- 0.00039

・ 星図

・ 光度変化

        m1 = 19.5 + 5 logΔ - 25   log r  [    , -100]  (              〜1998年10月19日)
        m1 =  7.4 + 5 logΔ + 15.0 log r  [-100,    0]  (1998年10月19日〜1999年 1月27日)
        m1 =  5.5 + 5 logΔ + 25.0 log r  [   0,   55]  (1999年 1月27日〜1999年 3月23日)
        m1 =  8.0 + 5 logΔ + 25   log r  [  55,     ]  (1999年 3月23日〜              )

---------------------------------------------------------------------

軌道要素は村岡健治氏の計算によるものです。
星図は StellaNavigator Ver.2.0 for Windows (アストロアーツ 編著 / アスキー出版局刊) で作成したものです。
光度グラフはComet for Windowsで作成したものです。

---------------------------------------------------------------------

Copyright(C) 1995-2008 Seiichi Yoshida (comet@aerith.net). All rights reserved.